STARLINK-11236 [DTC] (61062 NORAD) Tracking and Keplerian Element Data

This shows tracking and keplerian element data for the satellite.

Feedback or suggestion? Click here.




ElementValue
Catalog61062
NameSTARLINK-11236 [DTC]
Epoch Orbit481
Epoch Day286.48791193
Epoch Year2024
RAAN321.2509
Inclination53.1574
Eccentricity0.0001942
Argument of Perigee121.7531
Mean Anonmoly238.3676
Mean Motion15.69712094
Decay Rate0.00062707
L11 61062U 24164N 24286.48791193 .00062707 00000+0 51847-3 0 9995
L22 61062 53.1574 321.2509 0001942 121.7531 238.3676 15.69712094 4812



Live tracking and technical data element details for STARLINK-11236 [DTC] (NORAD 61062). STARLINK-11236 [DTC] can be tracked NOW for your location showing map with azimuth and elevation plus other details from your city location.







IsCatalogInMostPopularTable: catalog: 61062, numindb: 22
Update: records affected: 1



GetName: 61062 STARLINK-11236 [DTC]

Hit Count: updated at: Fri, 06 Dec 2024 10:05:51 GMT